Chignik, AK

3:36 PM AKDT on July 27, 2017 (GMT -0800)
Chignik

Weather History for PAJC - February, 2013

Change the Weather History Date:

Monday, February 25, 2013

  Actual Average Record
Temperature  
Mean Temperature 22 °F -  
Max Temperature 26 °F 34 °F 44 °F (2003)
Min Temperature 19 °F 27 °F 17 °F (2008)
Degree Days  
Heating Degree Days 42    
Moisture  
Dew Point 16 °F    
Average Humidity 74    
Maximum Humidity 86    
Minimum Humidity 68    
Precipitation  
Precipitation 0.00 in - - ()
Sea Level Pressure  
Sea Level Pressure 29.41 in    
Wind  
Wind Speed 17 mph (West)    
Max Wind Speed 29 mph    
Max Gust Speed 48 mph    
Visibility 2 miles    
Events      
Averages and records for this station are not official NWS values.
T = Trace of Precipitation, MM = Missing Value Source: NWS Daily Summary

Daily Weather History Graph

Daily Weather History Graph

Search for Another Location

Airport or City:

Trip Planner

Search our weather history database for the weather conditions in past years. The results will help you decide how hot, cold, wet, or windy it might be!

Date:

Astronomy

Feb. 25, 2013 Rise Set
Actual Time 8:34 AM AKST 6:59 PM AKST
Civil Twilight 7:56 AM AKST 7:37 PM AKST
Nautical Twilight 7:12 AM AKST 8:21 PM AKST
Astronomical Twilight 6:29 AM AKST 9:04 PM AKST
Moon 7:39 PM AKST (2/25) 8:01 AM AKST (2/25)
Length of Visible Light 11h 41m
Length of Day
10h 25m
Full, 100% of the Moon is Illuminated
Feb 25
Full
Mar 4
Last Quarter
Mar 11
New
Mar 19
First Quarter
Mar 27
Full

Hourly Weather History & Observations

Time (AKST) Temp. Windchill Dew Point Humidity Pressure Visibility Wind Dir Wind Speed Gust Speed Precip Events Conditions
9:56 AM 24.8 °F 13.4 °F 21.2 °F 86% 29.30 in 0.2 mi WSW 12.7 mph - N/A   Overcast
10:16 AM 24.8 °F 13.4 °F 21.2 °F 86% 29.30 in 0.2 mi WSW 12.7 mph - N/A   Overcast
10:36 AM 26.6 °F 15.7 °F 21.2 °F 80% 29.31 in 0.5 mi WSW 12.7 mph - N/A   Overcast
10:56 AM 26.6 °F 13.8 °F 21.2 °F 80% 29.31 in 0.2 mi WSW 17.3 mph - N/A   Overcast
11:16 AM 24.8 °F 12.4 °F 21.2 °F 86% 29.32 in 0.2 mi WSW 15.0 mph 23.0 mph N/A   Overcast
11:36 AM 24.8 °F 12.9 °F 21.2 °F 86% 29.32 in 0.2 mi WSW 13.8 mph 23.0 mph N/A   Overcast
11:56 AM 26.6 °F 15.7 °F 21.2 °F 80% 29.33 in 0.2 mi WSW 12.7 mph 18.4 mph N/A   Overcast
12:16 PM 26.6 °F 15.7 °F 21.2 °F 80% 29.33 in 0.2 mi West 12.7 mph 20.7 mph N/A   Overcast
12:36 PM 26.6 °F 17.5 °F 21.2 °F 80% 29.34 in 0.5 mi West 9.2 mph 21.9 mph N/A   Overcast
12:56 PM 26.6 °F 15.7 °F 19.4 °F 74% 29.34 in 0.5 mi West 12.7 mph 18.4 mph N/A   Overcast
1:16 PM 26.6 °F 14.3 °F 19.4 °F 74% 29.35 in 1.2 mi West 16.1 mph 23.0 mph N/A   Overcast
1:36 PM 26.6 °F 16.2 °F 17.6 °F 69% 29.36 in 3.0 mi West 11.5 mph 31.1 mph N/A   Overcast
1:56 PM 24.8 °F 13.4 °F 17.6 °F 74% 29.37 in 3.0 mi West 12.7 mph 31.1 mph N/A   Overcast
2:16 PM 24.8 °F 11.5 °F 17.6 °F 74% 29.37 in 4.0 mi West 17.3 mph 31.1 mph N/A   Overcast
2:36 PM 24.8 °F 11.5 °F 15.8 °F 69% 29.38 in 3.0 mi West 17.3 mph 31.1 mph N/A   Overcast
2:56 PM 24.8 °F 11.5 °F 15.8 °F 69% 29.38 in 2.0 mi West 17.3 mph 35.7 mph N/A   Overcast
3:16 PM 23.0 °F 7.2 °F 15.8 °F 74% 29.38 in 1.0 mi West 23.0 mph 29.9 mph N/A   Overcast
3:36 PM 23.0 °F 6.6 °F 15.8 °F 74% 29.39 in 1.0 mi West 25.3 mph 40.3 mph N/A   Overcast
3:56 PM 23.0 °F 6.6 °F 15.8 °F 74% 29.40 in 0.8 mi West 25.3 mph 39.1 mph N/A   Overcast
4:16 PM 23.0 °F 6.0 °F 15.8 °F 74% 29.41 in 1.0 mi West 27.6 mph 36.8 mph N/A   Overcast
4:56 PM 21.2 °F 6.8 °F 15.8 °F 80% 29.42 in 1.8 mi West 17.3 mph 34.5 mph N/A   Overcast
5:16 PM 21.2 °F 6.4 °F 14.0 °F 74% 29.43 in 2.5 mi West 18.4 mph 33.4 mph N/A   Overcast
5:36 PM 21.2 °F 4.2 °F 14.0 °F 74% 29.44 in 2.0 mi West 25.3 mph 29.9 mph N/A   Overcast
5:56 PM 21.2 °F 4.5 °F 14.0 °F 74% 29.44 in 3.0 mi West 24.2 mph 38.0 mph N/A   Overcast
6:16 PM 21.2 °F 4.9 °F 12.2 °F 68% 29.44 in 2.0 mi West 23.0 mph 38.0 mph N/A   Overcast
6:36 PM 21.2 °F 4.2 °F 12.2 °F 68% 29.44 in 1.5 mi WSW 25.3 mph 35.7 mph N/A   Overcast
6:56 PM 21.2 °F 5.6 °F 12.2 °F 68% 29.45 in 1.2 mi West 20.7 mph 42.6 mph N/A   Overcast
7:16 PM 21.2 °F 5.6 °F 14.0 °F 74% 29.45 in 1.5 mi West 20.7 mph 36.8 mph N/A   Overcast
7:36 PM 21.2 °F 5.6 °F 14.0 °F 74% 29.46 in 3.0 mi West 20.7 mph 39.1 mph N/A   Overcast
7:56 PM 21.2 °F 7.3 °F 12.2 °F 68% 29.46 in 3.0 mi West 16.1 mph 32.2 mph N/A   Overcast
8:16 PM 19.4 °F 3.2 °F 12.2 °F 74% 29.46 in 3.0 mi West 20.7 mph 38.0 mph N/A   Overcast
8:36 PM 19.4 °F 2.1 °F 12.2 °F 74% 29.46 in 2.5 mi West 24.2 mph 31.1 mph N/A   Overcast
8:56 PM 19.4 °F 3.2 °F 12.2 °F 74% 29.46 in 3.0 mi West 20.7 mph 31.1 mph N/A   Overcast
9:16 PM 21.2 °F 3.3 °F 12.2 °F 68% 29.47 in 3.0 mi WSW 28.8 mph 38.0 mph N/A   Overcast
9:36 PM 19.4 °F 2.8 °F 10.4 °F 68% 29.47 in 3.0 mi West 21.9 mph 34.5 mph N/A   Overcast
9:56 PM 21.2 °F 5.6 °F 12.2 °F 68% 29.48 in 5.0 mi West 20.7 mph 48.3 mph N/A   Overcast
10:16 PM 19.4 °F 1.1 °F 12.2 °F 74% 29.48 in 4.0 mi West 27.6 mph 39.1 mph N/A   Overcast
10:36 PM 21.2 °F 4.2 °F 12.2 °F 68% 29.47 in 5.0 mi WSW 25.3 mph 38.0 mph N/A   Overcast
10:56 PM 19.4 °F 1.1 °F 12.2 °F 74% 29.47 in 4.0 mi WSW 27.6 mph 34.5 mph N/A   Overcast
11:16 PM 21.2 °F 3.3 °F 12.2 °F 68% 29.47 in 4.0 mi WSW 28.8 mph 44.9 mph N/A   Overcast
11:36 PM 19.4 °F 3.2 °F 10.4 °F 68% 29.47 in 3.0 mi West 20.7 mph 39.1 mph N/A   Overcast
11:56 PM 19.4 °F 2.5 °F 12.2 °F 74% 29.46 in 3.0 mi West 23.0 mph 32.2 mph N/A   Overcast